Powrót do katalogu

DMSP 5D-2 F13 DEB

AktywnySSO
NORAD 40404·DEBRIS·🇺🇸 United States

Wystrzelony Mar 24, 1995 z Vandenberg Space Force Base

Loading…

Następne Przeloty (najbliższe 24 godziny)

TLE

ŚwieżeSource: Space-Track

Epoka: Sep 13, 2026, 18:54 UTC

1 40404U 95015R   26256.78773737  .00000268  00000-0  14965-3 0  9996
2 40404  98.7880 272.1160 0004737 241.9101 118.1596 14.18993726597240

Śledź DMSP 5D-2 F13 DEB w czasie rzeczywistym z AllMySat

Download on the App Store